Погода в Бектауате

Погода в Бектауате : погода сейчас, прогноз погоды и архив. Всё, что Вы хотите узнать о погоде в Бектауате!

Поиск расширенной информации на нашем сайте:

Другие новости

Новости СМИ2

Главная страница сайта

Новости сайта

02.10.2013

Напоминаем, что на нашем новом сайте вы можете получить высокодетализированные прогнозы погоды по пунктам России, СНГ и мира (включающие важные для авиации метеовеличины, такие как направление и скорость ветра, видимость, явления погоды, количество и форма облачности, нижняя и верхняя граница облачности), а также ознакомиться с разнообразными материалами по авиационной метеорологии и подборкой полезных ссылок на эту тему.

Сайт Метеоцентр.Азия посвящён разработке технологий оптимизации авиаметеорологического обслуживания, включая проектирование и перспективное создание нескольких автоматизированных авиаметеорологических систем:
- система выпуска высокодетальных прогностических карт явлений погоды для нижнего воздушного пространства по России и ближнему зарубежью;
- система верификации прогнозов TAF (выпускаемых синоптиками официальных АМСГ РФ и ближнего зарубежья) и AUTOTAF (выпускаемых сайтом Метеоцентр.Азия) - выявление ошибок, онлайн-сопоставление с фактической погодой METAR, автоматическое внесение коррективов в прогнозы при резком отклонении фактической погоды от прогноза, подсчёт оправдываемости прогнозов по элементам и в целом;
- система обработки, анализа и отображения авиаметеорологической информации для применения провайдерами метеорологической информации.


Погода в Бектауате - сегодня

Время (UTC), дата Ветер
(°,м/с) 
Видим.   Явления Облачность Т
(°С)
Тd
(°С)
f(%) Тe
(°С)
Pmin
(гПа)
dP
(гПа)
Po
(мм)
O2
(г/м3)
Тmin Tmax R s Состояние
почвы
00 22.05.17 090 (В) 20000 м    3/0 верхняя 
[Ci fib]
+17.9 -3.3 23 +18  1013.2  -0.8  707  268           
03 22.05.17 090 (В) 20000 м    3/0 верхняя 
[Ci fib]
+18 -2.2 25 +18  1013.2  0.1  707  267           
06 22.05.17 050 (СВ) 20000 м    6/0 верхняя 
[Ci]
+22 -3.3 18 +22  1010.2  -1.9  706  263  +17.6         
09 22.05.17 160 (Ю) 20000 м    4/0 верхняя 
[Ci fib]
+26.4 -4.1 13 +26  1007.3  -1.7  704  259           
12 22.05.17 160 (Ю) 20000 м    8/0 верхняя 
[Ci]
+27.3 -0.7 16 +27  1005.6  -1.4  703  258           
15 22.05.17 140 (ЮВ) 20000 м    5/0 верхняя 
[Ci]
+23.3 -4.4 15 +23  1006.6  703  261    +27.9       
18 22.05.17 110 (В) н/о    3/0 верхняя 
[Ci ing]
+23.1 +0.4 22 +23  1007  0.4  704  261    +27.9       
21 22.05.17 140 (ЮВ) н/о    ясно 
+22.3 +0.2 23 +22  1005.6  -1.5  702  262           
00 23.05.17 090 (В) 20000 м    3/0 верхняя 
[Ci ing]
+20 +1.3 29 +20  1006.1  -0.1  702  263           
03 23.05.17 160 (Ю) 20000 м    6/0 верхняя 
[Ci]
+22 +2.3 27 +22  1005.9  0.3  703  262           
06 23.05.17 140 (ЮВ) 20000 м    9/0 средняя, верхняя 
[Ac cast|Ci]
+27.5 +2.9 20 +28  1004.5  703  257  +19.3         
09 23.05.17 200 (Ю) 20000 м    9/4 1000 м верхняя 
[Cu med, cong|Ci ing]
+30.4 +4.3 19 +30  1004.2  0.3  703  254           
12 23.05.17 270 (З) 20000 м    9/4 600 м кучево-дожд., средняя, верхняя 
[Cb cap|Ac lent|Ci fib]
+28.1 +3 20 +28  1006.6  1.7  704  257           
15 23.05.17 290 (З) 20000 м    9/3 600 м кучево-дожд., средняя, верхняя 
[Cb cap|Ac lent|Ci]
+23.4 +8.1 38 +23  1009.7  706  260    +31.5       
18 23.05.17 270 (З) н/о    3/0 верхняя 
[Ci fib]
+20.1 +8.4 47 +20  1011.9  1.3  707  264    +31.5       
21 23.05.17 тихо ()   н/о    ясно 
+15.1 +9 67 +16  1014.3  1.1  707  268           
00 24.05.17 тихо ()   20000 м    ясно 
+13.4 +8.9 74 +14  1015.2  0.4  708  270           
03 24.05.17 тихо ()   20000 м    ясно 
+21.8 +9.5 45 +23  1013.4  0.3  708  262           
06 24.05.17 270 (З) 20000 м    3/3 1000 м 
[Cu hum]
+25.2 +7.4 32 +25  1012.2  -0.4  708  260  +12.5         
09 24.05.17 320 (СЗ) 20000 м    4/4 1000 м 
[Cu med, cong]
+26.7 +6.8 28 +27  1010.6  -1.2  707  258           
12 24.05.17 230 (ЮЗ) 20000 м    9/0 средняя, верхняя 
[Ac lent|Ci]
+26 +4.3 25 +26  1009.6  -1.1  706  259           
15 24.05.17 тихо ()   20000 м    6/0 верхняя 
[Ci fib]
+23.4 +7.4 36 +23  1010.5  0.3  706  261    +28.1       
18 24.05.17 020 (С) н/о    ясно 
+20 +7.8 45 +20  1012.2  0.9  707  264    +28.1       
21 24.05.17 020 (С) н/о    ясно 
+17 +8.6 58 +19  1012.8  -0.2  707  266           
00 25.05.17 020 (С) 20000 м    4/0 верхняя 
[Ci fib]
+16 +8.4 61 +15  1013.4  0.3  707  268           
Время (UTC), дата Ветер
(°,м/с) 
Видим.   Явления Облачность Т
(°С)
Тd
(°С)
f(%) Тe
(°С)
Pmin
(гПа)
dP
(гПа)
Po
(мм)
O2
(г/м3)
Тmin Tmax R s Состояние
почвы

Для получения пояснительной информации подведите курсор к названию столбца.

ПОГОДА в Бектауате - архив

Всё, что Вы хотите узнать о погоде в Бектауате - удобно и подробно!

Выберите нужную дату (начиная с 1 января 2015* года) и нажмите кнопку "Найти".
Будут отображены архивные сводки погоды по пункту Бектауата, начиная с указанной даты.


Отображать данные в формате CSV (для использования в таблицах Excel)


Внимание! Наш архив погоды предназначен исключительно для личного некоммерческого использования в познавательных целях. Если Вам необходимы официальные справки о состоянии погоды (для производственных, юридических, коммерческих и т.п. целей), обращайтесь в органы Росгидромета.

*Примечание: данная дата относится к архиву по метеостанциям СССР (Россия, СНГ, Балтия).
Архив по метеостанциям Зарубежной Европы и Азии (кроме Китая) хранится 10 дней, по другим регионам земного шара (Китай, Африка, Америка, Австралия, Океания) - 1 день.

Бектауата - район местоположения метеостанции


Название, широта, долгота, высота метеостанции:
Бектауата 47.4°ш. 74.8°д. 520 м над ур. моря [Казахстан]

Дополнительная информация

В oтличие oт бoльшинства пoгoдных сайтoв мы публикуем пoдрoбную метеoинфoрмацию в детальнoм прoфессиoнальнoм фoрмате.

Характеристики температуры и влажнoсти вoздуха измеряются на высoте 2 м в тени вдали oт зданий и деревьев.
Скoрoсть ветра измеряется на высoте 10 м (на урoвне рoста челoвека скoрoсть ветра ниже в 1.5-2 раза). Если метеoстанция нахoдится в гoрoде или в лесу, тo скoрoсть ветра занижена на 2-4 м/с пo сравнению с oткрытым местoм. Скoрoсть ветра над акватoриями крупных рек и oзёр, а также на вершинах хoлмoв на 2-5 м/с выше, чем в oбычных услoвиях.
Атмoсфернoе давление в разных тoчках местнoсти мoжет значительнo oтличаться oт давления на метеoстанции, в зависимoсти oт услoвий рельефа (при пoдъёме на 10 м давление пoнижается примернo на 1 мм рт.ст.).